�������l�o���
Date,Time,MP-1(��Sv/h),MP-2(��Sv/h),MP-3(��Sv/h),MP-4(��Sv/h),MP-5(��Sv/h),MP-6(��Sv/h),MP-7(��Sv/h),MP-8(��Sv/h),����,����(m/s),���J
2020/08/20,00:00,0.706,1.017,0.639,1.235,0.897,0.401,0.695,0.651,��쐼,2.6,��
2020/08/20,00:10,0.704,1.016,0.640,1.239,0.896,0.401,0.695,0.650,�쐼,3.3,��
2020/08/20,00:20,0.707,1.013,0.640,1.235,0.896,0.402,0.695,0.649,�쐼,3.2,��
2020/08/20,00:30,0.705,1.015,0.640,1.236,0.897,0.401,0.694,0.649,�쐼,2.6,��
2020/08/20,00:40,0.706,1.017,0.640,1.235,0.897,0.402,0.696,0.649,���쐼,3.1,��
2020/08/20,00:50,0.708,1.017,0.641,1.234,0.898,0.402,0.695,0.650,�쐼,2.8,��
2020/08/20,01:00,0.708,1.017,0.639,1.237,0.895,0.402,0.697,0.650,�쐼,2.9,��
2020/08/20,01:10,0.706,1.016,0.642,1.236,0.894,0.401,0.695,0.650,�쐼,2.8,��
2020/08/20,01:20,0.707,1.015,0.639,1.236,0.898,0.402,0.695,0.651,�쐼,2.6,��
2020/08/20,01:30,0.708,1.017,0.638,1.236,0.897,0.402,0.693,0.651,�쐼,3.1,��
2020/08/20,01:40,0.707,1.015,0.640,1.238,0.896,0.400,0.695,0.651,�쐼,3.4,��
2020/08/20,01:50,0.706,1.015,0.639,1.234,0.896,0.400,0.695,0.650,�쐼,3.5,��
2020/08/20,02:00,0.706,1.015,0.639,1.235,0.894,0.403,0.695,0.650,���쐼,4.3,��
2020/08/20,02:10,0.706,1.017,0.639,1.234,0.897,0.399,0.695,0.649,���쐼,2.9,��
2020/08/20,02:20,0.709,1.016,0.638,1.235,0.894,0.402,0.694,0.650,���k��,1.4,��
2020/08/20,02:30,0.708,1.014,0.638,1.234,0.895,0.401,0.695,0.651,�k,1.7,��
2020/08/20,02:40,0.707,1.016,0.639,1.236,0.893,0.401,0.694,0.650,�k��,2.3,��
2020/08/20,02:50,0.706,1.015,0.640,1.234,0.894,0.402,0.695,0.650,�k��,2.0,��
2020/08/20,03:00,0.707,1.013,0.638,1.237,0.897,0.402,0.695,0.651,���k��,2.2,��
2020/08/20,03:10,0.708,1.014,0.640,1.235,0.895,0.403,0.693,0.651,��,2.0,��
2020/08/20,03:20,0.707,1.015,0.640,1.235,0.895,0.403,0.693,0.652,���k��,2.3,��
2020/08/20,03:30,0.706,1.014,0.640,1.237,0.897,0.402,0.694,0.649,���k��,1.9,��
2020/08/20,03:40,0.708,1.015,0.640,1.235,0.896,0.401,0.696,0.650,�k�k��,1.7,��
2020/08/20,03:50,0.707,1.016,0.640,1.236,0.895,0.401,0.696,0.652,�k�k��,2.2,��
2020/08/20,04:00,0.708,1.016,0.640,1.239,0.896,0.402,0.693,0.651,�k,1.7,��
2020/08/20,04:10,0.706,1.016,0.640,1.238,0.894,0.400,0.696,0.651,�k,1.5,��
2020/08/20,04:20,0.709,1.014,0.638,1.239,0.893,0.400,0.695,0.651,�k,0.9,��
2020/08/20,04:30,0.707,1.014,0.642,1.236,0.895,0.402,0.694,0.651,-,CALM,��
2020/08/20,04:40,0.706,1.016,0.639,1.235,0.895,0.401,0.693,0.650,���쐼,0.6,��
2020/08/20,04:50,0.706,1.015,0.638,1.237,0.897,0.401,0.696,0.649,�쐼,0.9,��
2020/08/20,05:00,0.706,1.013,0.640,1.235,0.895,0.401,0.694,0.650,���쐼,1.1,��
2020/08/20,05:10,0.705,1.013,0.638,1.234,0.894,0.400,0.694,0.650,���쐼,0.9,��
2020/08/20,05:20,0.708,1.015,0.639,1.235,0.896,0.402,0.695,0.651,��,1.2,��
2020/08/20,05:30,0.705,1.014,0.637,1.235,0.895,0.401,0.694,0.650,���k��,1.5,��
2020/08/20,05:40,0.707,1.014,0.639,1.237,0.894,0.402,0.695,0.650,�k��,2.9,��
2020/08/20,05:50,0.706,1.017,0.639,1.235,0.895,0.402,0.694,0.650,�k��,2.6,��
2020/08/20,06:00,0.707,1.013,0.641,1.234,0.894,0.401,0.694,0.646,�k�k��,2.6,��
2020/08/20,06:10,0.707,1.012,0.638,1.235,0.893,0.400,0.696,0.650,�k,2.5,��
2020/08/20,06:20,0.707,1.013,0.637,1.235,0.892,0.402,0.694,0.650,�k�k��,1.9,��
2020/08/20,06:30,0.705,1.012,0.636,1.235,0.893,0.402,0.695,0.650,�k,1.5,��
2020/08/20,06:40,0.707,1.014,0.638,1.234,0.895,0.402,0.695,0.650,�k,1.2,��
2020/08/20,06:50,0.709,1.014,0.639,1.235,0.891,0.401,0.695,0.650,�k�k��,1.2,��
2020/08/20,07:00,0.709,1.013,0.639,1.234,0.893,0.400,0.695,0.650,�쓌,0.6,��
2020/08/20,07:10,0.708,1.011,0.639,1.235,0.891,0.402,0.695,0.652,���k��,0.6,��
2020/08/20,07:20,0.709,1.010,0.639,1.237,0.893,0.402,0.696,0.651,��,1.1,��
2020/08/20,07:30,0.708,1.011,0.641,1.234,0.893,0.403,0.696,0.652,���k��,0.8,��
2020/08/20,07:40,0.709,1.014,0.637,1.234,0.894,0.401,0.696,0.649,-,CALM,��
2020/08/20,07:50,0.708,1.012,0.638,1.236,0.892,0.401,0.695,0.650,-,CALM,��
2020/08/20,08:00,0.709,1.013,0.639,1.235,0.891,0.402,0.697,0.652,��쓌,0.9,��
2020/08/20,08:10,0.707,1.016,0.638,1.234,0.892,0.401,0.695,0.649,��쓌,0.9,��
2020/08/20,08:20,0.707,1.011,0.638,1.237,0.895,0.401,0.695,0.651,�쓌,1.1,��
2020/08/20,08:30,0.708,1.013,0.637,1.236,0.892,0.402,0.696,0.651,���쓌,1.2,��
2020/08/20,08:40,0.708,1.011,0.638,1.236,0.894,0.400,0.697,0.648,���쓌,1.7,��
2020/08/20,08:50,0.709,1.009,0.636,1.236,0.895,0.403,0.696,0.649,���쓌,1.2,��
2020/08/20,09:00,0.707,1.009,0.638,1.235,0.893,0.400,0.698,0.648,��,1.2,��
2020/08/20,09:10,0.708,1.008,0.637,1.235,0.895,0.400,0.696,0.648,�쓌,0.9,��
2020/08/20,09:20,0.709,1.008,0.636,1.237,0.897,0.400,0.697,0.648,���쓌,1.1,��
2020/08/20,09:30,0.709,1.006,0.638,1.235,0.896,0.399,0.696,0.650,���쓌,1.5,��
2020/08/20,09:40,0.708,1.010,0.638,1.235,0.895,0.401,0.696,0.651,���쓌,1.9,��
2020/08/20,09:50,0.710,1.009,0.639,1.235,0.895,0.400,0.695,0.649,���쓌,1.7,��
2020/08/20,10:00,0.708,1.007,0.638,1.237,0.895,0.400,0.698,0.650,���쓌,2.6,��
2020/08/20,10:10,0.708,1.008,0.640,1.236,0.894,0.400,0.695,0.652,�쓌,3.4,��
2020/08/20,10:20,0.709,1.010,0.639,1.235,0.895,0.398,0.695,0.647,�쓌,3.0,��
2020/08/20,10:30,0.710,1.013,0.638,1.235,0.896,0.400,0.694,0.648,�쓌,2.5,��
2020/08/20,10:40,0.709,1.012,0.639,1.235,0.896,0.400,0.694,0.651,��쓌,3.7,��
2020/08/20,10:50,0.709,1.012,0.640,1.237,0.896,0.400,0.695,0.648,��쓌,5.5,��
2020/08/20,11:00,0.708,1.010,0.640,1.234,0.896,0.400,0.695,0.648,��쓌,4.7,-
2020/08/20,11:10,0.708,1.014,0.639,1.239,0.901,0.398,0.695,0.650,��쓌,6.5,-
2020/08/20,11:20,0.709,1.012,0.642,1.240,0.898,0.400,0.695,0.649,��쓌,6.9,�L
2020/08/20,11:30,0.709,1.014,0.641,1.236,0.900,0.399,0.695,0.649,��쓌,5.6,��
2020/08/20,11:40,0.710,1.018,0.639,1.234,0.899,0.397,0.696,0.649,��쓌,5.6,��
2020/08/20,11:50,0.710,1.012,0.643,1.236,0.902,0.399,0.695,0.649,��,5.2,��
2020/08/20,12:00,0.710,1.016,0.641,1.236,0.899,0.400,0.697,0.649,��쓌,3.6,��
2020/08/20,12:10,0.710,1.015,0.641,1.235,0.899,0.400,0.696,0.650,��쓌,3.9,��
2020/08/20,12:20,0.709,1.016,0.640,1.236,0.899,0.399,0.697,0.650,��쓌,4.3,��
2020/08/20,12:30,0.709,1.014,0.641,1.236,0.902,0.400,0.697,0.650,��쓌,4.1,��
2020/08/20,12:40,0.710,1.017,0.641,1.234,0.901,0.400,0.697,0.651,��쓌,5.3,��
2020/08/20,12:50,0.708,1.013,0.643,1.236,0.902,0.402,0.696,0.649,��쓌,5.6,��
2020/08/20,13:00,0.708,1.014,0.641,1.237,0.902,0.399,0.696,0.650,��쓌,6.4,��
2020/08/20,13:10,0.710,1.014,0.641,1.236,0.903,0.401,0.697,0.651,��쓌,6.0,��
2020/08/20,13:20,0.708,1.014,0.641,1.234,0.904,0.400,0.697,0.651,��,6.2,��
2020/08/20,13:30,0.710,1.015,0.641,1.238,0.902,0.401,0.698,0.651,��,7.1,��
2020/08/20,13:40,0.709,1.013,0.643,1.239,0.902,0.401,0.699,0.653,��,6.6,��
2020/08/20,13:50,0.710,1.014,0.641,1.239,0.903,0.401,0.699,0.652,��,6.3,��
2020/08/20,14:00,0.710,1.015,0.643,1.239,0.901,0.400,0.699,0.652,��,5.7,��
2020/08/20,14:10,0.708,1.010,0.641,1.241,0.902,0.399,0.698,0.652,��,6.7,��
2020/08/20,14:20,0.709,1.012,0.642,1.240,0.904,0.401,0.698,0.651,��,6.3,��
2020/08/20,14:30,0.709,1.014,0.640,1.240,0.902,0.401,0.698,0.650,��,6.3,��
2020/08/20,14:40,0.709,1.014,0.641,1.239,0.902,0.401,0.698,0.652,��,5.9,��
2020/08/20,14:50,0.709,1.011,0.641,1.237,0.901,0.400,0.701,0.650,��,6.5,��
2020/08/20,15:00,0.709,1.016,0.642,1.239,0.903,0.400,0.698,0.651,��,6.5,��
2020/08/20,15:10,0.708,1.015,0.641,1.237,0.900,0.400,0.699,0.649,��,6.4,��
2020/08/20,15:20,0.708,1.015,0.640,1.240,0.902,0.399,0.697,0.650,��,6.8,��
2020/08/20,15:30,0.709,1.016,0.641,1.235,0.904,0.400,0.698,0.648,��,6.6,��
2020/08/20,15:40,0.709,1.016,0.641,1.238,0.903,0.399,0.698,0.649,��,6.7,��
2020/08/20,15:50,0.709,1.014,0.640,1.237,0.903,0.398,0.697,0.651,��,7.4,��
2020/08/20,16:00,0.708,1.016,0.641,1.238,0.902,0.399,0.698,0.651,��,7.3,��
2020/08/20,16:10,0.708,1.017,0.640,1.237,0.903,0.398,0.695,0.649,��,7.3,��
2020/08/20,16:20,0.710,1.018,0.641,1.240,0.901,0.397,0.697,0.650,��,6.7,��
2020/08/20,16:30,0.709,1.016,0.640,1.240,0.901,0.399,0.695,0.649,��,5.9,��
2020/08/20,16:40,0.708,1.018,0.642,1.240,0.900,0.397,0.696,0.650,��,5.2,��
2020/08/20,16:50,0.707,1.015,0.641,1.242,0.900,0.399,0.697,0.650,��,5.5,��
2020/08/20,17:00,0.709,1.018,0.640,1.241,0.900,0.398,0.696,0.653,��,5.0,��
2020/08/20,17:10,0.708,1.018,0.642,1.243,0.899,0.399,0.697,0.650,��,5.5,��
2020/08/20,17:20,0.709,1.017,0.641,1.242,0.902,0.398,0.696,0.649,��,5.5,��
2020/08/20,17:30,0.708,1.019,0.642,1.240,0.900,0.399,0.696,0.649,��,5.8,��
2020/08/20,17:40,0.707,1.018,0.641,1.240,0.902,0.398,0.696,0.651,��,6.9,��
2020/08/20,17:50,0.707,1.016,0.642,1.238,0.901,0.399,0.696,0.650,��,5.9,��
2020/08/20,18:00,0.708,1.017,0.639,1.238,0.903,0.399,0.697,0.650,��,6.7,��
2020/08/20,18:10,0.707,1.014,0.641,1.237,0.902,0.399,0.697,0.651,��,6.6,��
2020/08/20,18:20,0.709,1.019,0.639,1.242,0.901,0.399,0.695,0.648,��,6.6,��
2020/08/20,18:30,0.713,1.017,0.640,1.240,0.901,0.399,0.694,0.650,��,7.1,��
2020/08/20,18:40,0.710,1.015,0.641,1.239,0.900,0.397,0.694,0.651,��,6.9,��
2020/08/20,18:50,0.710,1.016,0.639,1.238,0.901,0.400,0.696,0.650,��,6.8,��
2020/08/20,19:00,0.709,1.016,0.639,1.238,0.902,0.398,0.695,0.651,��,6.1,��
2020/08/20,19:10,0.710,1.017,0.641,1.239,0.900,0.399,0.696,0.649,��,5.9,��
2020/08/20,19:20,0.709,1.015,0.642,1.239,0.900,0.399,0.696,0.649,��,4.7,��
2020/08/20,19:30,0.709,1.013,0.638,1.240,0.901,0.398,0.697,0.650,��쐼,4.3,��
2020/08/20,19:40,0.708,1.018,0.640,1.240,0.902,0.400,0.696,0.651,��쐼,3.8,��
2020/08/20,19:50,0.708,1.018,0.639,1.239,0.900,0.399,0.696,0.653,�쐼,3.3,��
2020/08/20,20:00,0.710,1.020,0.640,1.242,0.901,0.399,0.697,0.650,�쐼,2.5,��
2020/08/20,20:10,0.710,1.020,0.640,1.239,0.902,0.399,0.696,0.651,���쐼,2.3,��
2020/08/20,20:20,0.711,1.019,0.640,1.238,0.901,0.400,0.697,0.652,���쐼,1.5,��
2020/08/20,20:30,0.710,1.019,0.642,1.238,0.901,0.401,0.695,0.650,��쐼,1.7,��
2020/08/20,20:40,0.709,1.017,0.642,1.240,0.901,0.399,0.697,0.650,�쐼,1.5,��
2020/08/20,20:50,0.709,1.019,0.640,1.241,0.903,0.401,0.696,0.649,���쐼,1.5,��
2020/08/20,21:00,0.709,1.020,0.642,1.243,0.900,0.401,0.696,0.652,���쐼,1.4,��
2020/08/20,21:10,0.712,1.020,0.641,1.240,0.903,0.402,0.697,0.650,��,1.2,��
2020/08/20,21:20,0.712,1.019,0.641,1.238,0.900,0.401,0.697,0.651,��,1.5,��
2020/08/20,21:30,0.712,1.019,0.641,1.241,0.901,0.402,0.697,0.652,��,1.5,��
2020/08/20,21:40,0.710,1.020,0.641,1.240,0.900,0.399,0.696,0.651,�쐼,1.5,��
2020/08/20,21:50,0.711,1.019,0.641,1.239,0.903,0.401,0.697,0.651,�쐼,1.1,��
2020/08/20,22:00,0.712,1.019,0.642,1.240,0.902,0.401,0.696,0.651,���k��,1.2,��
2020/08/20,22:10,0.713,1.019,0.643,1.238,0.903,0.402,0.698,0.652,�k��,1.5,��
2020/08/20,22:20,0.710,1.020,0.641,1.241,0.901,0.401,0.696,0.650,���k��,1.5,��
2020/08/20,22:30,0.711,1.018,0.642,1.241,0.902,0.400,0.696,0.651,���k��,1.5,��
2020/08/20,22:40,0.709,1.018,0.642,1.239,0.900,0.400,0.696,0.652,�k��,0.8,��
2020/08/20,22:50,0.711,1.020,0.642,1.242,0.902,0.401,0.696,0.652,���쐼,0.8,��
2020/08/20,23:00,0.711,1.020,0.642,1.242,0.898,0.401,0.698,0.651,-,CALM,��
2020/08/20,23:10,0.711,1.020,0.640,1.240,0.901,0.401,0.694,0.652,�k�k��,0.9,��
2020/08/20,23:20,0.711,1.020,0.642,1.240,0.901,0.402,0.696,0.652,�k,1.5,��
2020/08/20,23:30,0.711,1.018,0.643,1.240,0.902,0.400,0.699,0.651,�k�k��,2.0,��
2020/08/20,23:40,0.710,1.020,0.643,1.238,0.900,0.401,0.696,0.650,�k�k��,3.4,��
2020/08/20,23:50,0.711,1.018,0.641,1.241,0.899,0.401,0.694,0.652,�k,1.9,��
